EW0362 Weather Reports


Display with metric or nautical units.
time (UTC)temp
F
wind
direction
speed
MPH
gust
MPH
rain 1hr
in
rain 24hr
in
rain mn
in
humidity
%
barometer
mb
20200920135204 49 104 1.0 3.0 0.00 0.00 0.00 69 1034.5
20200920134703 48 27 1.0 2.0 0.00 0.00 0.00 70 1034.4
20200920134209 48 252 0.0 1.0 0.00 0.00 0.00 73 1034.4
20200920133706 47 253 1.0 2.0 0.00 0.00 0.00 73 1034.4
20200920132703 46 26 0.0 2.0 0.00 0.00 0.00 77 1034.3
20200920132205 45 327 0.0 2.0 0.00 0.00 0.00 81 1034.3
20200920131742 44 313 0.0 2.0 0.00 0.00 0.00 80 1034.2
20200920131209 44 61 1.0 3.0 0.00 0.00 0.00 83 1034.2
20200920130705 43 340 0.0 5.0 0.00 0.00 0.00 85 1034.1
20200920130208 41 5 0.0 3.0 0.00 0.00 0.00 88 1034.1
20200920125703 40 322 1.0 3.0 0.00 0.00 0.00 97 1034.1
20200920125205 39 312 0.0 1.0 0.00 0.00 0.00 97 1034.1
20200920124704 39 312 0.0 1.0 0.00 0.00 0.00 97 1034.1
20200920123203 37 278 0.0 2.0 0.00 0.00 0.00 97 1034.0
20200920122703 37 238 0.0 1.0 0.00 0.00 0.00 97 1033.9
20200920121721 35 0 0.0 0.0 0.00 0.00 0.00 97 1033.6
20200920120704 35 238 0.0 0.0 0.00 0.00 0.00 97 1033.6
20200920120204 35 238 0.0 0.0 0.00 0.00 0.00 96 1033.6
20200920115703 34 238 0.0 0.0 0.00 0.00 0.00 96 1033.6
20200920114703 33 238 0.0 0.0 0.00 0.00 0.00 96 1033.6
20200920114203 33 238 0.0 0.0 0.00 0.00 0.00 96 1033.5
20200920113703 33 238 0.0 0.0 0.00 0.00 0.00 95 1033.5
20200920113204 33 238 0.0 0.0 0.00 0.00 0.00 95 1033.4
20200920112703 33 238 0.0 0.0 0.00 0.00 0.00 95 1033.3
20200920112205 32 238 0.0 0.0 0.00 0.00 0.00 95 1033.2
20200920111710 32 238 0.0 0.0 0.00 0.00 0.00 95 1033.2
20200920111204 32 238 0.0 0.0 0.00 0.00 0.00 94 1033.2
20200920110703 32 238 0.0 0.0 0.00 0.00 0.00 94 1033.1
20200920110213 32 238 0.0 0.0 0.00 0.00 0.00 94 1033.1
20200920105703 32 238 0.0 0.0 0.00 0.00 0.00 94 1033.1
20200920104202 32 238 0.0 0.0 0.00 0.00 0.00 94 1032.8
20200920103704 32 238 0.0 0.0 0.00 0.00 0.00 94 1032.8
20200920102704 32 238 0.0 0.0 0.00 0.00 0.00 94 1032.6
20200920102208 32 238 0.0 0.0 0.00 0.00 0.00 94 1032.5
20200920101706 32 238 0.0 0.0 0.00 0.00 0.00 94 1032.4
20200920101204 32 238 0.0 0.0 0.00 0.00 0.00 94 1032.3
20200920095703 32 238 0.0 0.0 0.00 0.00 0.00 94 1032.3
20200920095204 33 238 0.0 0.0 0.00 0.00 0.00 94 1032.3
20200920094703 33 238 0.0 0.0 0.00 0.00 0.00 94 1032.2
20200920094205 33 238 0.0 0.0 0.00 0.00 0.00 94 1032.1
20200920093704 33 238 0.0 0.0 0.00 0.00 0.00 93 1032.1
20200920093235 33 238 0.0 0.0 0.00 0.00 0.00 93 1032.1
20200920092703 33 238 0.0 0.0 0.00 0.00 0.00 93 1032.1
20200920092203 33 238 0.0 0.0 0.00 0.00 0.00 93 1032.0
20200920091203 33 238 0.0 0.0 0.00 0.00 0.00 93 1031.9
20200920090207 33 238 0.0 0.0 0.00 0.00 0.00 93 1031.8
20200920084204 33 238 0.0 0.0 0.00 0.00 0.00 93 1031.5
20200920083704 33 238 0.0 0.0 0.00 0.00 0.00 93 1031.4
20200920082204 33 238 0.0 0.0 0.00 0.00 0.00 93 1031.3
20200920081203 34 238 0.0 0.0 0.00 0.00 0.00 93 1031.4
20200920080703 34 238 0.0 0.0 0.00 0.00 0.00 93 1031.3
20200920080206 34 238 0.0 0.0 0.00 0.00 0.00 93 1031.3
20200920075705 34 238 0.0 0.0 0.00 0.00 0.00 93 1031.4
20200920074205 34 238 0.0 0.0 0.00 0.00 0.00 93 1031.3
20200920073704 34 238 0.0 0.0 0.00 0.00 0.00 92 1031.3
20200920072703 34 238 0.0 0.0 0.00 0.00 0.00 92 1031.2
20200920071704 34 238 0.0 0.0 0.00 0.00 0.00 92 1031.3
20200920071204 34 238 0.0 0.0 0.00 0.00 0.00 92 1031.3
20200920070707 34 238 0.0 0.0 0.00 0.00 0.00 92 1031.3
20200920065204 35 238 0.0 0.0 0.00 0.00 0.00 92 1031.3
20200920064706 35 238 0.0 0.0 0.00 0.00 0.00 92 1031.3
20200920064203 35 238 0.0 0.0 0.00 0.00 0.00 93 1031.2
20200920063706 35 238 0.0 0.0 0.00 0.00 0.00 92 1031.1
20200920063207 35 238 0.0 0.0 0.00 0.00 0.00 92 1031.2
20200920062704 35 238 0.0 1.0 0.00 0.00 0.00 92 1031.1
20200920062206 35 238 0.0 0.0 0.00 0.00 0.00 92 1031.2
20200920061203 35 238 0.0 0.0 0.00 0.00 0.00 91 1031.2
20200920060705 35 238 0.0 0.0 0.00 0.00 0.00 91 1031.2
20200920055706 36 238 0.0 0.0 0.00 0.00 0.00 91 1031.1
20200920055206 36 238 0.0 0.0 0.00 0.00 0.00 91 1031.0
20200920054205 36 238 0.0 0.0 0.00 0.00 0.00 91 1031.0
20200920053703 36 238 0.0 0.0 0.00 0.00 0.00 91 1031.0
20200920053204 36 238 0.0 0.0 0.00 0.00 0.00 91 1030.9
20200920050703 37 238 0.0 0.0 0.00 0.00 0.00 90 1030.6
20200920050204 37 238 0.0 0.0 0.00 0.00 0.00 90 1030.6
20200920045703 37 238 0.0 0.0 0.00 0.00 0.00 90 1030.5
20200920045203 37 238 0.0 0.0 0.00 0.00 0.00 90 1030.4
20200920044704 37 238 0.0 0.0 0.00 0.00 0.00 90 1030.4
20200920043703 37 238 0.0 0.0 0.00 0.00 0.00 90 1030.2
20200920043204 37 238 0.0 0.0 0.00 0.00 0.00 90 1030.2
20200920042703 37 238 0.0 0.0 0.00 0.00 0.00 90 1030.1
20200920035704 38 238 0.0 0.0 0.00 0.00 0.00 89 1030.1
20200920035204 38 238 0.0 0.0 0.00 0.00 0.00 89 1030.1
20200920034704 38 238 0.0 0.0 0.00 0.00 0.00 89 1030.0
20200920034206 39 238 0.0 0.0 0.00 0.00 0.00 89 1030.1
20200920033204 39 238 0.0 0.0 0.00 0.00 0.00 88 1029.9
20200920032704 39 238 0.0 0.0 0.00 0.00 0.00 88 1029.8
20200920031704 39 238 0.0 0.0 0.00 0.00 0.00 88 1029.8
20200920030703 39 238 0.0 0.0 0.00 0.00 0.00 88 1029.6
20200920025204 40 238 0.0 0.0 0.00 0.00 0.00 88 1029.4
20200920024704 40 238 0.0 0.0 0.00 0.00 0.00 88 1029.4
20200920024204 40 238 0.0 0.0 0.00 0.00 0.00 88 1029.3
20200920023707 40 238 0.0 0.0 0.00 0.00 0.00 87 1029.3
20200920023204 40 238 0.0 0.0 0.00 0.00 0.00 87 1029.3
20200920022204 41 238 0.0 0.0 0.00 0.00 0.00 86 1029.1
20200920021704 41 238 0.0 0.0 0.00 0.00 0.00 86 1029.0
20200920021218 41 238 0.0 0.0 0.00 0.00 0.00 86 1029.0
20200920020707 41 238 0.0 0.0 0.00 0.00 0.00 85 1028.9
20200920020207 41 238 0.0 0.0 0.00 0.00 0.00 85 1028.9
20200920015705 41 238 0.0 0.0 0.00 0.00 0.00 85 1028.9
20200920015204 42 238 0.0 0.0 0.00 0.00 0.00 85 1028.9
20200920014704 42 238 0.0 0.0 0.00 0.00 0.00 84 1028.8
20200920013710 42 238 0.0 0.0 0.00 0.00 0.00 83 1028.6
20200920013204 42 238 0.0 0.0 0.00 0.00 0.00 83 1028.6
20200920012703 43 238 0.0 0.0 0.00 0.00 0.00 82 1028.6
20200920012207 43 238 0.0 0.0 0.00 0.00 0.00 82 1028.6
20200920010704 44 238 0.0 0.0 0.00 0.00 0.00 81 1028.4
20200920005704 44 238 0.0 0.0 0.00 0.00 0.00 80 1028.4
20200920005209 45 238 0.0 0.0 0.00 0.00 0.00 79 1028.4
20200920004714 45 238 0.0 0.0 0.00 0.00 0.00 79 1028.3
20200920004208 45 238 0.0 0.0 0.00 0.00 0.00 78 1028.2
20200920003704 46 238 0.0 0.0 0.00 0.00 0.00 76 1028.1
20200920003203 46 238 0.0 0.0 0.00 0.00 0.00 76 1028.1
20200920002204 47 238 0.0 0.0 0.00 0.00 0.00 74 1027.9
20200920001705 47 238 0.0 0.0 0.00 0.00 0.00 74 1027.9
20200920001202 47 238 0.0 0.0 0.00 0.00 0.00 72 1027.7
20200920000704 48 238 0.0 0.0 0.00 0.00 0.00 72 1027.6
20200920000225 48 238 0.0 0.0 0.00 0.00 0.00 71 1027.5
20200919235703 49 238 0.0 0.0 0.00 0.00 0.00 70 1027.4
20200919235202 49 238 0.0 0.0 0.00 0.00 0.00 69 1027.4
20200919234703 49 238 0.0 0.0 0.00 0.00 0.00 68 1027.3
20200919234203 50 238 0.0 0.0 0.00 0.00 0.00 69 1027.2
20200919233703 50 238 0.0 0.0 0.00 0.00 0.00 68 1027.0
20200919233202 51 238 0.0 0.0 0.00 0.00 0.00 66 1027.0
20200919232703 51 238 0.0 0.0 0.00 0.00 0.00 66 1027.0
20200919231702 52 238 0.0 0.0 0.00 0.00 0.00 65 1026.9
20200919231202 52 238 0.0 0.0 0.00 0.00 0.00 64 1026.8
20200919230702 53 238 0.0 0.0 0.00 0.00 0.00 62 1026.7
20200919230209 53 238 0.0 0.0 0.00 0.00 0.00 61 1026.6
20200919225702 54 238 0.0 0.0 0.00 0.00 0.00 64 1026.6
20200919225202 54 238 0.0 0.0 0.00 0.00 0.00 61 1026.4
20200919224704 55 238 0.0 0.0 0.00 0.00 0.00 62 1026.4
20200919224202 55 238 0.0 0.0 0.00 0.00 0.00 59 1026.4
20200919223702 55 238 0.0 0.0 0.00 0.00 0.00 52 1026.3
20200919222702 56 238 0.0 0.0 0.00 0.00 0.00 54 1026.4
20200919221702 57 238 0.0 0.0 0.00 0.00 0.00 46 1026.3
20200919221202 57 238 0.0 2.0 0.00 0.00 0.00 44 1026.3
20200919215703 57 22 0.0 1.0 0.00 0.00 0.00 45 1026.1
20200919215203 57 22 0.0 1.0 0.00 0.00 0.00 45 1026.1
20200919214704 57 228 0.0 1.0 0.00 0.00 0.00 44 1026.0
20200919214203 57 235 0.0 0.0 0.00 0.00 0.00 45 1025.9
20200919213702 58 235 1.0 3.0 0.00 0.00 0.00 49 1025.9
20200919213207 58 229 1.0 3.0 0.00 0.00 0.00 48 1025.9
20200919212703 58 92 1.0 2.0 0.00 0.00 0.00 45 1025.8
20200919212202 58 75 1.0 2.0 0.00 0.00 0.00 42 1025.8
20200919211202 58 110 0.0 2.0 0.00 0.00 0.00 40 1025.6
20200919210702 59 227 1.0 5.0 0.00 0.00 0.00 40 1025.5
20200919210203 59 207 1.0 3.0 0.00 0.00 0.00 39 1025.5
20200919205212 59 273 1.0 3.0 0.00 0.00 0.00 42 1025.4
20200919204702 59 58 1.0 2.0 0.00 0.00 0.00 45 1025.4
20200919203205 60 221 1.0 5.0 0.00 0.00 0.00 42 1025.2
20200919202204 60 266 0.0 3.0 0.00 0.00 0.00 36 1025.2
20200919201703 60 12 1.0 3.0 0.00 0.00 0.00 39 1025.2
20200919201204 60 215 1.0 3.0 0.00 0.00 0.00 37 1025.2
20200919200703 60 285 0.0 3.0 0.00 0.00 0.00 39 1025.3
20200919195705 60 7 1.0 6.0 0.00 0.00 0.00 38 1025.3
20200919195206 60 35 2.0 3.0 0.00 0.00 0.00 38 1025.2
20200919194705 60 267 1.0 3.0 0.00 0.00 0.00 37 1025.2
20200919194203 60 292 1.0 3.0 0.00 0.00 0.00 40 1025.2
20200919193703 59 61 1.0 5.0 0.00 0.00 0.00 43 1025.2
20200919193203 60 231 0.0 2.0 0.00 0.00 0.00 46 1025.1
20200919192703 60 231 0.0 2.0 0.00 0.00 0.00 48 1025.3
20200919192204 60 129 0.0 3.0 0.00 0.00 0.00 43 1025.3
20200919191703 60 262 3.0 9.0 0.00 0.00 0.00 39 1025.3
20200919190703 60 294 1.0 3.0 0.00 0.00 0.00 37 1025.3
20200919190203 60 28 4.0 12.0 0.00 0.00 0.00 37 1025.4
20200919185708 60 276 1.0 3.0 0.00 0.00 0.00 36 1025.5
20200919185202 60 255 1.0 3.0 0.00 0.00 0.00 39 1025.5
20200919184703 60 68 2.0 3.0 0.00 0.00 0.00 38 1025.7
20200919184203 60 252 1.0 3.0 0.00 0.00 0.00 38 1025.7
20200919183703 60 11 2.0 6.0 0.00 0.00 0.00 36 1025.7
20200919183202 60 247 2.0 5.0 0.00 0.00 0.00 39 1025.7
20200919182703 59 271 1.0 3.0 0.00 0.00 0.00 40 1025.7
20200919182210 59 308 1.0 3.0 0.00 0.00 0.00 37 1025.6
20200919181702 59 287 1.0 5.0 0.00 0.00 0.00 38 1025.7
20200919181203 59 316 2.0 3.0 0.00 0.00 0.00 39 1025.7
20200919180705 59 285 1.0 3.0 0.00 0.00 0.00 42 1025.7
20200919180205 59 186 1.0 3.0 0.00 0.00 0.00 42 1025.8
20200919175706 59 251 1.0 3.0 0.00 0.00 0.00 42 1025.8
20200919174703 59 34 2.0 6.0 0.00 0.00 0.00 45 1025.8
20200919174205 59 269 0.0 3.0 0.00 0.00 0.00 43 1025.9
20200919173702 59 258 2.0 3.0 0.00 0.00 0.00 43 1026.0
20200919173204 59 281 2.0 8.0 0.00 0.00 0.00 42 1025.9
20200919172702 59 257 1.0 3.0 0.00 0.00 0.00 43 1026.0
20200919172202 58 281 0.0 2.0 0.00 0.00 0.00 46 1025.9
20200919171734 58 86 1.0 3.0 0.00 0.00 0.00 46 1026.1
20200919171204 58 11 0.0 3.0 0.00 0.00 0.00 43 1026.0
20200919170703 58 46 2.0 3.0 0.00 0.00 0.00 43 1026.1
20200919165706 58 52 1.0 3.0 0.00 0.00 0.00 41 1026.2
20200919165202 58 51 2.0 3.0 0.00 0.00 0.00 39 1026.3
20200919164705 58 295 1.0 5.0 0.00 0.00 0.00 42 1026.3
20200919163703 57 215 1.0 5.0 0.00 0.00 0.00 42 1026.3
20200919163203 57 358 2.0 3.0 0.00 0.00 0.00 43 1026.3
20200919162210 57 67 2.0 5.0 0.00 0.00 0.00 40 1026.4
20200919161208 57 121 1.0 2.0 0.00 0.00 0.00 41 1026.4
20200919160202 57 83 1.0 6.0 0.00 0.00 0.00 43 1026.5
20200919155208 56 37 2.0 5.0 0.00 0.00 0.00 43 1026.6
20200919154702 56 53 1.0 5.0 0.00 0.00 0.00 42 1026.6
20200919154205 56 78 1.0 5.0 0.00 0.00 0.00 45 1026.6
20200919153202 56 223 2.0 3.0 0.00 0.00 0.00 51 1026.7
20200919152703 55 148 1.0 3.0 0.00 0.00 0.00 49 1026.6
20200919152203 55 106 2.0 5.0 0.00 0.00 0.00 47 1026.7
20200919151706 55 77 1.0 3.0 0.00 0.00 0.00 50 1026.7
20200919151203 55 313 2.0 3.0 0.00 0.00 0.00 49 1026.8
20200919150703 55 346 2.0 3.0 0.00 0.00 0.00 49 1026.8
20200919145205 54 48 2.0 5.0 0.00 0.00 0.00 52 1026.8
20200919144702 54 224 0.0 3.0 0.00 0.00 0.00 56 1026.9
20200919144203 54 219 0.0 3.0 0.00 0.00 0.00 52 1026.9
20200919142702 53 11 1.0 5.0 0.00 0.00 0.00 60 1026.8
20200919142207 53 30 0.0 2.0 0.00 0.00 0.00 59 1026.8
20200919141206 52 340 1.0 3.0 0.00 0.00 0.00 58 1026.8
20200919140204 52 226 1.0 5.0 0.00 0.00 0.00 61 1026.8
20200919135702 52 139 1.0 3.0 0.00 0.00 0.00 62 1026.8